2023/04/30 00:00:00, 8.4,14.5
2023/04/30 00:10:00, 6.3,15.1
2023/04/30 00:20:00, 5.5,14.9
2023/04/30 00:30:00, 5.5,15.2
2023/04/30 00:40:00, 5.3,14.8
2023/04/30 00:50:00, 5.6,14.8
2023/04/30 01:00:00, 5.4,14.6
2023/04/30 01:10:00, 4.4,14.8
2023/04/30 01:20:00, 5.8,15.0
2023/04/30 01:30:00, 8.0,14.9
2023/04/30 01:40:00, 6.4,14.7
2023/04/30 01:50:00, 4.6,14.8
2023/04/30 02:00:00, 5.3,14.7
2023/04/30 02:10:00, 4.6,14.8
2023/04/30 02:20:00, 4.9,14.6
2023/04/30 02:30:00, 5.3,14.7
2023/04/30 02:40:00, 4.6,14.5
2023/04/30 02:50:00, 3.3,14.4
2023/04/30 03:00:00, 5.0,14.4
2023/04/30 03:10:00,11.8,14.0
2023/04/30 03:20:00,13.1,14.2
2023/04/30 03:30:00,13.4,14.0
2023/04/30 03:40:00,11.7,13.7
2023/04/30 03:50:00, 7.7,14.1
2023/04/30 04:00:00,12.2,13.9
2023/04/30 04:10:00,16.7,13.6
2023/04/30 04:20:00, 7.8,12.8
2023/04/30 04:30:00,16.4,12.8
2023/04/30 04:40:00,16.1,12.5
2023/04/30 04:50:00,15.3,12.3
2023/04/30 05:00:00,14.6,12.2
2023/04/30 05:10:00,12.6,12.0
2023/04/30 05:20:00,13.1,11.9
2023/04/30 05:30:00,12.2,11.9
2023/04/30 05:40:00,13.5,12.1
2023/04/30 05:50:00, 9.2,12.2
2023/04/30 06:00:00,11.5,12.1
2023/04/30 06:10:00,11.5,12.0
2023/04/30 06:20:00,11.3,12.0
2023/04/30 06:30:00,11.5,12.2
2023/04/30 06:40:00,10.1,12.5
2023/04/30 06:50:00, 8.7,12.8
2023/04/30 07:00:00, 8.9,12.8
2023/04/30 07:10:00, 8.7,13.0
2023/04/30 07:20:00, 8.2,13.2
2023/04/30 07:30:00, 8.3,13.3
2023/04/30 07:40:00, 7.0,13.4
2023/04/30 07:50:00, 8.6,13.7
2023/04/30 08:00:00, 7.4,13.6
2023/04/30 08:10:00, 6.1,14.1
2023/04/30 08:20:00, 9.4,13.9
2023/04/30 08:30:00, 9.6,14.4
2023/04/30 08:40:00, 7.9,14.8
2023/04/30 08:50:00, 7.5,15.0
2023/04/30 09:00:00, 1.8,15.9
2023/04/30 09:10:00, 2.4,16.2
2023/04/30 09:20:00, 1.4,16.1
2023/04/30 09:30:00, 4.5,16.5
2023/04/30 09:40:00, 3.6,16.3
2023/04/30 09:50:00, 2.0,16.4
2023/04/30 10:00:00, 1.6,16.6
2023/04/30 10:10:00, 1.9,16.7
2023/04/30 10:20:00, 6.2,16.3
2023/04/30 10:30:00, 9.2,16.8
2023/04/30 10:40:00, 8.0,16.6
2023/04/30 10:50:00, 8.0,17.3
2023/04/30 11:00:00, 9.5,16.5
2023/04/30 11:10:00,10.6,17.1
2023/04/30 11:20:00,10.3,17.9
2023/04/30 11:30:00, 0.0,18.8
2023/04/30 11:40:00,---,18.4
2023/04/30 11:50:00, 4.5,18.4
2023/04/30 12:00:00,---,18.4
2023/04/30 12:10:00, 2.8,19.1
2023/04/30 12:20:00, 5.2,19.2
2023/04/30 12:30:00, 8.1,18.9
2023/04/30 12:40:00, 7.8,18.7
2023/04/30 12:50:00, 4.8,20.3
2023/04/30 13:00:00, 2.9,20.4
2023/04/30 13:10:00, 6.2,20.6
2023/04/30 13:20:00, 6.0,19.8
2023/04/30 13:30:00, 6.3,21.1
2023/04/30 13:40:00, 7.2,21.5
2023/04/30 13:50:00, 7.1,20.8
2023/04/30 14:00:00, 5.7,21.4
2023/04/30 14:10:00, 5.7,21.4
2023/04/30 14:20:00, 3.8,21.3
2023/04/30 14:30:00,---,21.4
2023/04/30 14:40:00, 0.0,21.3
2023/04/30 14:50:00,---,21.2
2023/04/30 15:00:00, 3.0,21.3
2023/04/30 15:10:00, 3.9,21.1
2023/04/30 15:20:00, 5.2,21.7
2023/04/30 15:30:00, 6.6,22.1
2023/04/30 15:40:00, 5.1,21.5
2023/04/30 15:50:00, 4.5,21.8
2023/04/30 16:00:00, 2.3,21.8
2023/04/30 16:10:00, 2.3,21.7
2023/04/30 16:20:00, 3.6,21.8
2023/04/30 16:30:00, 3.3,21.9
2023/04/30 16:40:00, 6.6,21.7
2023/04/30 16:50:00, 8.0,21.3
2023/04/30 17:00:00, 9.0,20.3
2023/04/30 17:10:00, 9.3,19.5
2023/04/30 17:20:00,10.5,18.8
2023/04/30 17:30:00,10.7,18.9
2023/04/30 17:40:00, 8.3,15.9
2023/04/30 17:50:00, 6.4,15.3
2023/04/30 18:00:00, 8.6,15.1
2023/04/30 18:10:00,10.7,14.5
2023/04/30 18:20:00,10.5,14.1
2023/04/30 18:30:00,12.4,13.8
2023/04/30 18:40:00,12.4,13.3
2023/04/30 18:50:00,13.1,13.1
2023/04/30 19:00:00,13.4,12.4
2023/04/30 19:10:00,13.3,12.3
2023/04/30 19:20:00,13.8,11.5
2023/04/30 19:30:00,14.3,11.2
2023/04/30 19:40:00,14.6,10.9
2023/04/30 19:50:00,14.4,10.7
2023/04/30 20:00:00,14.8,10.5
2023/04/30 20:10:00,14.7,10.2
2023/04/30 20:20:00,15.1, 9.9
2023/04/30 20:30:00,15.3, 9.8
2023/04/30 20:40:00,15.0, 9.3
2023/04/30 20:50:00,14.9, 9.2
2023/04/30 21:00:00,14.8, 9.2
2023/04/30 21:10:00,14.4, 8.9
2023/04/30 21:20:00,14.5, 9.0
2023/04/30 21:30:00,15.1, 8.8
2023/04/30 21:40:00,14.8, 8.9
2023/04/30 21:50:00,15.0, 8.5
2023/04/30 22:00:00,15.0, 8.5
2023/04/30 22:10:00,14.7, 8.4
2023/04/30 22:20:00,14.7, 8.5
2023/04/30 22:30:00,14.7, 7.9
2023/04/30 22:40:00,14.8, 7.8
2023/04/30 22:50:00,14.8, 8.2
2023/04/30 23:00:00,14.6, 8.1
2023/04/30 23:10:00,14.2, 7.9
2023/04/30 23:20:00,10.5, 7.6
2023/04/30 23:30:00,13.9, 7.4
2023/04/30 23:40:00,14.3, 7.3
2023/04/30 23:50:00,14.2, 7.2
